Location: Prague
(50.0830°N, 14.4670°E)
Time: 02:24:23
(UTC+01:00)

Oscar 11 - Pass Details

Date: 05 December 2021
Orbit: 611 x 625 km, 97.6° (Epoch: 17 January)

Event Time Altitude Azimuth Distance (km) Brightness Sun altitude
Rises 06:10:58 0° 8° (N) 2,920 10.4 -14.2°
Reaches altitude 10° 06:13:14 10° 2° (N) 2,006 9.5 -13.8°
Maximum altitude 06:17:22 44° 291° (WNW) 864 7.3 -13.2°
Drops below altitude 10° 06:21:29 10° 219° (SW) 1,984 9.5 -12.6°
Sets 06:23:43 0° 213° (SSW) 2,882 10.4 -12.3°
